This is the latest recevied weather packets stored in our database for station/object K4OAM-13. If no packets are shown the sender has not sent any weather packets the latest 10 day(s).
| Time | Temp. | Humidity | Pressure | Rain* | Wind** | Luminosity | Snow |
|---|---|---|---|---|---|---|---|
| 1777739756 | 5° C | 66% | 1025 hPa | - | - | - | - |
| 1777739156 | 5° C | 69% | 1025.2 hPa | - | - | - | - |
| 1777738555 | 5° C | 69% | 1025.3 hPa | - | - | - | - |
| 1777737955 | 5° C | 69% | 1025.7 hPa | - | - | - | - |
| 1777737355 | 3.89° C | 70% | 1026.3 hPa | - | - | - | - |
| 1777736755 | 3.89° C | 73% | 1026.6 hPa | - | - | - | - |
| 1777736155 | 3.33° C | 72% | 1026.6 hPa | - | - | - | - |
| 1777735555 | 4.44° C | 73% | 1026.6 hPa | - | - | - | - |
| 1777734955 | 4.44° C | 74% | 1026.7 hPa | - | - | - | - |
| 1777734355 | 4.44° C | 73% | 1027 hPa | - | - | - | - |
| 1777733755 | 3.33° C | 73% | 1027.5 hPa | - | - | - | - |
| 1777733155 | 2.78° C | 73% | 1027.6 hPa | - | - | - | - |
| 1777732555 | 2.78° C | 73% | 1027.8 hPa | - | - | - | - |
| 1777731955 | 2.78° C | 75% | 1028.1 hPa | - | - | - | - |
| 1777731355 | 2.22° C | 77% | 1028.2 hPa | - | - | - | - |
| 1777730755 | 2.22° C | 78% | 1028.5 hPa | - | - | - | - |
| 1777730155 | 2.22° C | 79% | 1028.6 hPa | - | - | - | - |
| 1777729555 | 2.22° C | 78% | 1028.8 hPa | - | - | - | - |
| 1777728956 | 1.67° C | 77% | 1028.9 hPa | - | - | - | - |
| 1777728355 | 1.67° C | 80% | 1029.3 hPa | - | - | - | - |
| 1777727755 | 0.56° C | 85% | 1029.6 hPa | - | - | - | - |
| 1777727155 | 0° C | 85% | 1029.8 hPa | - | - | - | - |
| 1777726555 | 0° C | 83% | 1029.7 hPa | - | - | - | - |
| 1777725956 | -0.56° C | 83% | 1030 hPa | - | - | - | - |
| 1777725356 | -0.56° C | 83% | 1030.1 hPa | - | - | - | - |
* Rain since midnight (hover to see other rain measurements)
** Current wind speed in m/s (hover to see current wind gust speed)